Location: ?p Thanh B�nh
(16.5833°N, 107.5333°E)
Time: 05:42:43
(UTC+00:00)

Okean 1-7 Rocket - Pass Details

Date: 29 October 2020
Orbit: 615 x 650 km, 82.5° (Epoch: 29 November)

Event Time Altitude Azimuth Distance (km) Brightness Sun altitude
Rises 21:51:25 0° 199° (SSW) 2,955 7.0 -13.8°
Reaches altitude 10° 21:53:46 10° 206° (SSW) 2,045 6.1 -13.2°
Maximum altitude 21:58:02 40° 276° (W) 958 4.0 -12.2°
Drops below altitude 10° 22:02:17 10° 346° (NNW) 2,039 6.0 -11.2°
Sets 22:04:38 0° 353° (N) 2,945 6.9 -10.7°
